Pakanbaru, Indonesia

4:39 AM WIB on July 21, 2017 (GMT +0700)
Sultan Syarif Kasim Ii

Weather History for WIBB - September, 2013

Change the Weather History Date:

Saturday, September 21, 2013

  Actual Average Record
Temperature  
Mean Temperature 84 °F -  
Max Temperature 95 °F - - ()
Min Temperature 72 °F - - ()
Cooling Degree Days 18    
Growing Degree Days 34 (Base 50)    
Moisture  
Dew Point 71 °F    
Average Humidity 65    
Maximum Humidity 100    
Minimum Humidity 31    
Precipitation  
Precipitation 0.00 in - - ()
Sea Level Pressure  
Sea Level Pressure 29.75 in    
Wind  
Wind Speed 2 mph ()    
Max Wind Speed 8 mph    
Max Gust Speed -    
Visibility 5.1 miles    
Events      
T = Trace of Precipitation, MM = Missing Value Source: Averaged Metar Reports

Daily Weather History Graph

Daily Weather History Graph

Search for Another Location

Airport or City:

Trip Planner

Search our weather history database for the weather conditions in past years. The results will help you decide how hot, cold, wet, or windy it might be!

Date:

Astronomy

Sep. 21, 2013 Rise Set
Actual Time 6:04 AM WIB 6:10 PM WIB
Civil Twilight 5:43 AM WIB 6:31 PM WIB
Nautical Twilight 5:19 AM WIB 6:55 PM WIB
Astronomical Twilight 4:55 AM WIB 7:19 PM WIB
Moon 7:40 PM WIB (9/21) 7:15 AM WIB (9/21)
Length of Visible Light 12h 47m
Length of Day
12h 06m
Waning Gibbous, 96% of the Moon is Illuminated
Sep 21
Waning Gibbous
Sep 27
Last Quarter
Oct 5
New
Oct 12
First Quarter
Oct 19
Full

Hourly Weather History & Observations

Time (WIB) Temp. Heat Index Dew Point Humidity Pressure Visibility Wind Dir Wind Speed Gust Speed Precip Events Conditions
1:00 AM 79 °F - 74 °F 82% 29.78 in 5 mi Calm Calm - -   Scattered Clouds
4:00 AM 74 °F - 71 °F 89% 29.77 in 4 mi Calm Calm - -   Partly Cloudy
6:00 AM 73.4 °F - 71.6 °F 94% 29.77 in 3.1 mi Calm Calm - N/A   Haze
7:00 AM 74 °F - 73 °F 96% 29.80 in 6 mi Calm Calm - -   Scattered Clouds
7:00 AM 73.4 °F - 73.4 °F 100% 29.80 in - Calm Calm - N/A   Clear
8:00 AM 78.8 °F - 75.2 °F 89% 29.80 in - Calm Calm - N/A   Clear
9:00 AM 84.2 °F 90.9 °F 73.4 °F 70% 29.83 in - South 5.8 mph - N/A   Clear
10:00 AM 86.0 °F 93.4 °F 73.4 °F 66% 29.83 in - SE 6.9 mph - N/A   Clear
11:00 AM 89.6 °F 96.2 °F 71.6 °F 55% 29.80 in - SE 4.6 mph - N/A   Scattered Clouds
12:00 PM 91.4 °F 96.8 °F 69.8 °F 49% 29.77 in - South 6.9 mph - N/A   Partly Cloudy
1:00 PM 92 °F - 68 °F 36% 29.75 in 6 mi South 8.1 mph - -   Scattered Clouds
1:00 PM 91.4 °F 95.4 °F 68.0 °F 46% 29.74 in - South 8.1 mph - N/A   Partly Cloudy
2:00 PM 93.2 °F 98.8 °F 69.8 °F 46% 29.71 in - WSW 5.8 mph - N/A   Scattered Clouds
3:00 PM 95.0 °F 99.5 °F 68.0 °F 41% 29.68 in - Calm Calm - N/A   Scattered Clouds
4:00 PM 94 °F - 67 °F 31% 29.69 in 6 mi Calm Calm - -   Scattered Clouds
4:00 PM 93.2 °F 96.2 °F 66.2 °F 41% 29.68 in - Calm Calm - N/A   Partly Cloudy
5:00 PM 93.2 °F 96.2 °F 66.2 °F 41% 29.68 in - Calm Calm - N/A   Partly Cloudy
6:00 PM 91.4 °F 98.4 °F 71.6 °F 52% 29.68 in 5.6 mi Calm Calm - N/A   Scattered Clouds
7:00 PM 87 °F - 74 °F 58% 29.74 in 5 mi Calm Calm - -   Scattered Clouds
7:00 PM 86.0 °F 93.4 °F 73.4 °F 66% 29.71 in 5.0 mi Calm Calm - N/A   Unknown
8:00 PM 84.2 °F 92.3 °F 75.2 °F 74% 29.74 in 5.0 mi Calm Calm - N/A   Partly Cloudy
9:00 PM 82.4 °F 88.2 °F 73.4 °F 74% 29.77 in 5.0 mi Calm Calm - N/A   Partly Cloudy
10:00 PM 80 °F - 74 °F 77% 29.79 in 5 mi Calm Calm - -   Scattered Clouds
10:00 PM 80.6 °F 85.4 °F 73.4 °F 79% 29.77 in 5.0 mi Calm Calm - N/A   Partly Cloudy